Find DS-EO

NORAD ID: 52935 Int'l Des: 2022-072 Owner: DSTA/STELEC Country: SG operational
LEOCIRCULAR

リアルタイム位置

3D地球を読み込み中...

DS-EOについて

説明を読み込み中...

次回通過

Passes for default location (London). Set your location on the main map for personalized predictions.

高度履歴

Loading altitude history...

軌道要素

1 52935U 22072A 26103.96302620 .00003392 00000-0 14034-3 0 9999
2 52935 9.9942 304.1168 0002833 90.2013 269.8527 15.13354467208764
Epoch: Apr 13, 2026 • Age: 25 hours

現在のステータス

高度 525.9 km
速度 7.60 km/s
衛星直下点 -8.69°S, 25.5°W
打ち上げ日 Jun 30, 2022
運用期間 3.7 years
タイプ other

技術仕様

分類 Payload
質量 365.00 kg
乾燥質量 350.00 kg
総質量 365.00 kg
長さ 2.00 m
直径 2.00 m
スパン 2.00 m
形状 Box+pan
製造者 SATRHW/STELEC
バスタイプ DS-EO
フェーズステータス In Orbit
所有者/国 DSTA/STELEC/SG

Most Searched